Regional Weather Roundup
Issued by NWS

Home | Current Version | Previous Version | Text Only | Print | Product List | Glossary On
Versions: 1 2 3 4 5 6 7 8 9 10 11 12 13 14 15 16 17 18 19 20 21 22 23 24 25 26 27 28 29 30 31 32 33 34 35 36 37 38 39 40 41 42 43 44 45 46 47 48 49 50
000
ASUS46 KSTO 232315
RWRCA

NORTHERN AND CENTRAL CA REGIONAL WEATHER ROUNDUP
NATIONAL WEATHER SERVICE SACRAMENTO CA
400 PM PDT TUE MAY 23 2017

NOTE: FAIR INDICATES FEW OR NO CLOUDS BELOW 12,000 FEET WITH NO
SIGNIFICANT WEATHER AND/OR OBSTRUCTIONS TO VISIBILITY.

CAZ001-003-240000-
NORTHWEST AREA

CITY           SKY/WX    TMP DP  RH WIND       PRES   REMARKS
CRESCENT CITY  SUNNY     59  53  80 N13       29.97F
UKIAH          SUNNY     97  46  17 N9        29.87F HX  93
$$

CAZ006-505>513-240000-
BAY AREA

CITY           SKY/WX    TMP DP  RH WIND       PRES   REMARKS
SANTA ROSA     SUNNY     73  51  46 S13       29.91R
SAN RAFAEL     N/A       71  MM  MM MISG
NAPA           SUNNY     73  58  59 S13       29.91F
CONCORD        SUNNY     90  58  33 W10       29.87F
OAKLAND CITY   N/A      MM  MM  MM MISG
OAKLAND        MOSUNNY   66  54  65 W16       29.95F
SAN FRAN CITY  N/A       60  MM  69 MISG
SAN FRAN ARPT  MOSUNNY   65  51  60 NW23      29.93F
LIVERMORE      SUNNY     85  53  33 W17       29.88S
HAYWARD        SUNNY     72  51  47 W15       29.94S
REDWOOD CITY   N/A       74  MM  57 MISG
MOFFETT ARPT   SUNNY     71  58  63 N12       29.94S
SAN JOSE ARPT  MOSUNNY   77  57  50 W14       29.92S
$$
CAZ034-037-514>518-240000-
CENTRAL COAST

CITY           SKY/WX    TMP DP  RH WIND       PRES   REMARKS
WATSONVILLE    CLOUDY    58  54  86 SW10      30.00F
SALINAS        CLOUDY    60  52  74 W13G22    29.99F
MONTEREY       CLOUDY    59  52  77 W10       30.00S
SAN LUIS OBISP SUNNY     75  55  49 NW9       29.96F
SANTA MARIA    MOSUNNY   67  54  63 W13       29.98F
$$
CAZ015-016-240000-
NORTHERN SACRAMENTO VALLEY

CITY           SKY/WX    TMP DP  RH WIND       PRES   REMARKS
REDDING        SUNNY    101  49  17 MISG      29.82F HX  98
RED BLUFF      SUNNY     99  52  20 SE9       29.83F HX  96
OROVILLE       SUNNY     97  54  23 VRB5      29.85F HX  95
$$
CAZ016>018-240000-
SOUTHERN SACRAMENTO VALLEY

CITY           SKY/WX    TMP DP  RH WIND       PRES   REMARKS
AUBURN         SUNNY     91  54  27 CALM      29.93F
BEALE AFB      SUNNY     97  58  27 S5        29.82F HX  96
LINCOLN        FAIR      97  46  17 W3        29.83F HX  93
MARYSVILLE     SUNNY     97  55  24 VRB5      29.83F HX  95
PLACERVILLE    FAIR      88  48  25 W5        30.01F
SAC INTL ARPT  MOSUNNY   96  51  21 VRB3      29.82F HX  93
MATHER AIRPORT SUNNY     99  48  18 W6        29.83  HX  95
DOWNTOWN SAC   N/A      100  MM  MM MISG
SAC EXEC ARPT  SUNNY     98  57  25 VRB6      29.83F HX  97
VACAVILLE      SUNNY     95  60  31 S10       29.85F HX  95
TRAVIS AFB     SUNNY     91  54  28 SW15      29.83F
$$
CAZ019>021-240000-
SAN JOAQUIN VALLEY

CITY           SKY/WX    TMP DP  RH WIND       PRES   REMARKS
STOCKTON       SUNNY     99  58  25 W15       29.83F HX  98
MODESTO        SUNNY    100  55  22 N8        29.82F HX  98
MERCED         SUNNY    100  48  17 NW12      29.81F HX  96
LEMOORE        SUNNY    102  35  10 NW9       29.81F HX  96
FRESNO         MOSUNNY  101  50  18 NW9       29.82F HX  98
HANFORD        SUNNY    101  53  20 VRB6      29.81F HX  99
PORTERVILLE      N/A    101  52  19 N10       29.82F HX  98
BAKERSFIELD    SUNNY    102  50  17 NW10      29.81F HX  99
$$
CAZ011-012-071-240000-
NORTHERN MOUNTAINS

CITY           SKY/WX    TMP DP  RH WIND       PRES   REMARKS
YREKA          SUNNY     91  38  15 CALM      29.97F
MOUNT SHASTA   SUNNY     89  41  18 CALM      30.02F
ALTURAS        SUNNY     88  32  13 W8        30.07F
$$
CAZ011-012-071-240000-
SIERRA NEVADA MTNS

CITY           SKY/WX    TMP DP  RH WIND       PRES   REMARKS
BLUE CANYON    MOSUNNY   78  47  33 SW7       30.19F
TRUCKEE        PTSUNNY   75  41  29 W7        30.20F
TAHOE VLY ARPT MOSUNNY   77  36  22 VRB5      30.22F
MAMMOTH LAKES  FAIR      77  28  16 SW8       30.27F
$$



USA.gov is the U.S. government's official web portal to all federal, state and local government web resources and services.